TimeEDT,TemperatureF,Dew PointF,Humidity,Sea Level PressureIn,VisibilityMPH,Wind Direction,Wind SpeedMPH,Gust SpeedMPH,PrecipitationIn,Events,Conditions,WindDirDegrees,DateUTC
12:53 AM,34.0,27.0,75,29.93,10.0,West,9.2,17.3,N/A,,Overcast,270,2013-03-12 04:53:00
1:41 AM,33.8,26.6,75,29.91,10.0,West,11.5,-,N/A,,Overcast,270,2013-03-12 05:41:00
2:03 AM,33.8,26.6,75,29.91,10.0,West,11.5,-,N/A,,Overcast,270,2013-03-12 06:03:00
2:10 AM,33.8,26.6,75,29.92,10.0,West,10.4,-,N/A,,Overcast,270,2013-03-12 06:10:00
2:22 AM,33.8,26.6,75,29.92,10.0,West,10.4,-,N/A,,Overcast,270,2013-03-12 06:22:00
2:53 AM,34.0,26.1,73,29.94,10.0,West,9.2,17.3,N/A,,Overcast,280,2013-03-12 06:53:00
3:53 AM,34.0,26.1,73,29.94,10.0,West,11.5,-,N/A,,Overcast,270,2013-03-12 07:53:00
4:53 AM,33.1,26.1,75,29.94,10.0,West,5.8,-,N/A,,Overcast,260,2013-03-12 08:53:00
5:53 AM,33.1,26.1,75,29.95,10.0,West,6.9,-,N/A,,Overcast,260,2013-03-12 09:53:00
6:53 AM,33.1,25.0,72,29.96,10.0,WNW,10.4,18.4,N/A,,Overcast,290,2013-03-12 10:53:00
7:53 AM,33.1,25.0,72,29.99,10.0,WNW,5.8,-,N/A,,Overcast,290,2013-03-12 11:53:00
8:53 AM,32.0,21.0,64,30.00,10.0,West,10.4,18.4,N/A,,Overcast,280,2013-03-12 12:53:00
9:53 AM,33.1,21.9,64,30.01,10.0,West,11.5,18.4,N/A,,Mostly Cloudy,260,2013-03-12 13:53:00
10:48 AM,35.6,23.0,60,30.01,10.0,West,11.5,-,N/A,,Scattered Clouds,260,2013-03-12 14:48:00
10:53 AM,35.1,23.0,61,30.03,10.0,West,16.1,21.9,N/A,,Mostly Cloudy,260,2013-03-12 14:53:00
11:53 AM,35.1,24.1,64,30.05,10.0,West,10.4,-,N/A,,Mostly Cloudy,280,2013-03-12 15:53:00
12:08 PM,35.6,24.8,65,30.02,10.0,West,10.4,-,N/A,,Scattered Clouds,260,2013-03-12 16:08:00
12:53 PM,39.0,25.0,57,30.04,10.0,West,11.5,23.0,N/A,,Partly Cloudy,270,2013-03-12 16:53:00
1:53 PM,42.1,26.1,53,30.03,10.0,SW,13.8,18.4,N/A,,Partly Cloudy,230,2013-03-12 17:53:00
2:53 PM,43.0,26.1,51,30.02,10.0,West,12.7,19.6,N/A,,Scattered Clouds,260,2013-03-12 18:53:00
3:53 PM,44.1,26.1,49,30.00,10.0,WSW,16.1,28.8,N/A,,Scattered Clouds,250,2013-03-12 19:53:00
4:53 PM,45.0,24.1,44,30.00,10.0,WSW,15.0,26.5,N/A,,Partly Cloudy,250,2013-03-12 20:53:00
5:53 PM,43.0,24.1,47,30.01,10.0,West,11.5,24.2,N/A,,Mostly Cloudy,280,2013-03-12 21:53:00
6:53 PM,42.1,23.0,47,30.01,10.0,West,10.4,-,N/A,,Mostly Cloudy,270,2013-03-12 22:53:00
7:53 PM,41.0,24.1,51,30.02,10.0,WSW,16.1,25.3,N/A,,Overcast,250,2013-03-12 23:53:00
8:48 PM,35.6,30.2,81,30.04,9.0,WNW,12.7,18.4,0.00,Rain,Light Rain,290,2013-03-13 00:48:00
8:53 PM,36.0,30.9,82,30.06,8.0,West,10.4,-,0.00,Snow,Light Snow,280,2013-03-13 00:53:00
9:15 PM,35.6,30.2,81,30.05,10.0,West,10.4,-,0.01,,Overcast,270,2013-03-13 01:15:00
9:53 PM,35.1,30.0,82,30.07,10.0,WNW,5.8,-,0.01,,Partly Cloudy,290,2013-03-13 01:53:00
10:53 PM,35.1,28.9,78,30.08,10.0,WNW,9.2,-,N/A,,Clear,290,2013-03-13 02:53:00
11:53 PM,33.1,28.0,82,30.08,10.0,West,4.6,-,N/A,,Partly Cloudy,270,2013-03-13 03:53:00